Location: Heidelsheim
(49.1022°N, 8.6462°E)
Time: 21:42:11
(UTC+00:00)

Daily predictions for brighter satellites

Satellite Brightness Start Highest point End
(mag) Time Altitude Azimuth Time Altitude Azimuth Time Altitude Azimuth
BREEZE-M TANK 3.5 16:26:17 10° W 16:29:57 49° S 16:34:28 10° ESE
Cosmos 2344 3.7 16:22:57 10° SSW 16:30:27 55° ESE 16:37:29 10° NE
SJ-12 4.2 16:28:22 10° S 16:32:13 69° WSW 16:36:05 10° NNW
SL-16 R/B 4.0 16:29:08 10° W 16:33:41 24° NW 16:38:15 10° N
Okean 3 4.3 16:33:27 10° SSE 16:36:57 28° E 16:40:28 10° NNE
Cosmos 1937 Rocket 4.4 16:33:01 10° N 16:37:20 26° NE 16:41:39 10° ESE
ASTEX 1 3.5 16:33:14 10° S 16:38:06 80° W 16:42:59 10° N
Meteor 1-31 Rocket 4.2 16:37:07 10° E 16:39:17 15° ENE 16:41:27 10° NNE
Cosmos 1354 Rocket 4.5 16:35:39 10° NNW 16:40:51 68° WSW 16:46:03 10° S
Okean 2 4.4 16:38:10 10° SE 16:41:22 24° E 16:44:34 10° NE
CZ-2D R/B 3.9 16:39:43 10° S 16:43:04 52° W 16:46:26 10° NNW
Cosmos 1943 Rocket 2.3 16:39:14 10° NNW 16:44:50 57° ENE 16:50:22 10° SE
ARIANE 5 R/B 3.9 16:40:54 10° S 16:45:53 46° W 16:50:55 10° NNW
NOSS 5 (C) 4.4 16:43:37 10° NW 16:46:53 80° SW 16:50:07 10° SE
CZ-2C R/B 4.4 16:48:33 11° ENE 16:48:56 11° ENE 16:49:56 10° NE
Cosmos 2237 Rocket 2.8 16:45:01 10° S 16:50:12 38° ESE 16:55:25 10° NE
RESURS DK-1 2.5 16:47:51 10° NNW 16:51:48 50° NE 16:55:43 10° SE
Tsikada Rocket 4.1 16:48:14 10° SSW 16:54:22 80° W 17:00:35 10° N
Cosmos 1862 Rocket 4.1 16:50:34 10° SSE 16:54:33 36° E 16:58:36 10° NNE
USA 81 4.4 16:51:12 10° SSW 16:56:27 73° W 17:01:45 10° N
BlueWalker 3 2.3 16:53:21 10° WNW 16:56:53 45° N 16:59:51 14° E
BREEZE-M DEB (TANK) 1.7 16:55:39 10° SW 16:57:53 47° SSE 17:00:09 14° E
Cosmos 1455 2.4 16:55:07 10° NNW 16:58:17 58° W 17:01:26 10° S
Cosmos 2278 Rocket 2.2 16:53:17 10° NNW 16:58:59 88° ENE 17:04:40 10° SSE
COSMO-SKYMED 1 3.3 16:57:09 10° NNE 17:01:04 32° E 17:04:57 10° SSE
SJ-7 4.1 16:57:41 10° SSE 17:01:28 82° ENE 17:05:18 10° NNW
Cosmos 2219 Rocket 3.3 16:56:13 10° WSW 17:01:29 41° NW 17:06:47 10° NNE
ARGOS Delta rocket 3.7 16:57:25 10° SSE 17:02:04 88° WSW 17:06:34 10° NNW
ISS -2.9 17:00:42 10° SW 17:03:50 38° SSE 17:06:06 16° E
CZ-4C R/B 2.7 17:00:47 10° S 17:04:32 29° ESE 17:08:01 14° ENE
CSL-04 DEB 4.5 17:02:06 10° S 17:05:57 73° WSW 17:09:45 10° NNW
Nadezhda 4 Rocket 4.4 17:02:45 10° SSE 17:08:17 38° E 17:13:53 10° NNE
Meteor 1-21 4.3 17:03:17 10° S 17:08:53 88° W 17:14:34 10° NNE
USA 306 2.8 17:10:06 10° NW 17:12:04 26° NNE 17:12:55 21° NE
Cosmos 1763 Rocket 3.5 17:06:56 10° SSW 17:12:09 86° WNW 17:17:19 10° NNE
Spot 4 Rocket 4.4 17:07:16 10° S 17:12:22 69° WSW 17:17:31 10° NNW
YAOGAN 1 3.2 17:09:19 10° SE 17:13:07 32° ENE 17:16:57 10° N
ATLAS 5 CENTAUR R/B 2.8 17:12:40 10° SE 17:14:18 13° ESE 17:14:21 13° ESE
Cosmos 1733 Rocket 3.0 17:10:05 10° N 17:14:30 81° E 17:18:55 10° SSE
Cosmos 540 Rocket 3.4 17:12:43 10° SSW 17:17:51 85° ESE 17:23:00 10° NNE
Landsat 7 3.8 17:14:36 10° SSE 17:19:12 59° ENE 17:23:49 10° N
Cosmos 2322 4.4 17:15:11 10° SW 17:20:46 53° NW 17:26:24 10° NNE
SPOT 1/Viking Rocket 4.2 17:16:31 10° SE 17:21:00 31° ENE 17:25:30 10° N
USA 215 3.7 17:16:12 14° NE 17:21:39 53° NNW 17:27:58 10° W
Cosmos 468 Rocket 3.9 17:16:35 10° SSW 17:21:46 73° ESE 17:26:55 10° NNE
Cosmos 2228 Rocket 3.1 17:20:54 10° S 17:25:26 80° E 17:30:01 10° NNE
Cosmos 2279 Rocket 4.2 17:20:23 10° NNW 17:26:35 74° W 17:32:44 10° S
Resurs 1-3 4.3 17:25:01 10° SE 17:28:45 30° ENE 17:32:32 10° N
Cosmos 1656 Rocket 4.1 17:24:18 10° NNW 17:29:24 37° NE 17:33:23 16° ESE
Cosmos 1898 Rocket 3.4 17:24:17 10° NNW 17:29:35 81° ENE 17:34:54 10° SSE
Cosmos 841 Rocket 3.8 17:26:18 10° S 17:31:15 45° ESE 17:35:00 17° NE
Aureole 1 Rocket 4.4 17:25:56 10° NNW 17:33:42 87° WSW 17:40:37 10° SSE
Cosmos 1703 3.7 17:33:27 10° SSE 17:36:27 31° E 17:36:27 31° E
Okean 1-7 2.9 17:34:54 10° S 17:39:06 61° E 17:43:20 10° NNE
SL-16 R/B 3.0 17:34:46 10° SSE 17:39:32 29° ESE 17:40:55 26° E
Cosmos 1980 3.7 17:34:11 10° SSW 17:39:50 89° SE 17:44:57 13° NNE
Cosmos 1953 3.3 17:39:40 10° NNW 17:43:15 45° W 17:46:48 10° SSW
SKYMED 2 3.5 17:44:53 10° NNE 17:49:15 87° WNW 17:53:36 10° SSW
ADEOS 4.3 17:48:47 30° ENE 17:49:16 31° ENE 17:53:47 10° N
NOSS 0 Rocket 4.3 17:43:47 10° SW 17:49:53 65° NW 17:55:40 12° NNE
Cosmos 1818 3.5 17:47:04 10° NW 17:52:33 69° NE 17:56:19 20° SE
Cosmos 1092 Rocket 4.2 17:48:23 10° SSE 17:54:08 43° E 17:59:59 10° NNE
ATLAS 2AS CENTAUR R/B 2.6 17:47:22 10° NW 17:54:12 68° NE 17:59:05 19° ESE
Resurs 01 Rocket 3.8 17:57:26 12° NNE 17:57:26 12° NNE 17:57:54 10° N
Cosmos 2369 Rocket 2.6 17:50:17 10° NNW 17:55:32 39° NE 17:56:55 34° E
ACS3 Solar Sail 1.9 17:49:38 10° SSE 17:56:03 89° ENE 18:02:30 10° NNW
COSMOS 2428 4.0 17:52:07 10° WSW 17:57:22 37° NW 18:02:39 10° NNE
Cosmos 372 Rocket 4.4 17:54:33 10° NNW 17:59:34 61° WSW 18:04:33 10° S
BREEZE-M DEB (TANK) 2.9 17:59:01 10° W 18:06:40 84° N 18:07:22 58° ENE
Cosmos 1908 Rocket 3.4 18:03:12 10° N 18:07:34 89° W 18:11:53 10° S
Meteor 2-12 Rocket 4.3 18:05:25 10° S 18:11:26 71° E 18:17:32 10° NNE
CZ-4B DEB 4.4 18:12:00 43° ENE 18:12:24 44° ENE 18:17:37 10° N
Meteor 1-31 Rocket 3.5 18:09:00 10° S 18:12:27 48° W 18:15:56 10° NNW
EO 1 Delta rocket 4.2 18:08:29 10° N 18:13:12 65° WNW 18:17:48 10° SSW
Cosmos 1627 Rocket 4.4 18:10:50 10° S 18:17:08 66° E 18:23:28 10° NNE
Cosmos 2297 3.7 18:13:00 10° NNW 18:18:44 62° ENE 18:20:18 45° ESE
Cosmos 1937 Rocket 4.1 18:14:32 10° NNW 18:19:33 55° WSW 18:24:35 10° S
Cosmos 2263 4.5 18:14:07 10° NNW 18:19:34 45° NE 18:19:34 45° NE
CZ-2C R/B 3.4 18:22:19 39° NW 18:22:19 39° NW 18:24:38 10° NNW
Cosmos 2026 Rocket 3.9 18:16:29 10° S 18:22:49 74° E 18:29:11 10° NNE
Cosmos 1932 4.4 18:18:19 10° SSW 18:24:24 64° ESE 18:25:49 50° ENE
BREEZE-M DEB (TANK) 3.1 18:15:32 10° WSW 18:28:02 79° SSE 18:28:56 60° E
Cosmos 1943 Rocket 4.3 18:23:32 10° NW 18:28:12 27° WSW 18:32:49 10° SSW
Cosmos 2237 Rocket 3.2 18:28:47 10° SW 18:34:12 43° NW 18:37:58 19° N
BlueWalker 3 2.8 18:31:13 10° WNW 18:33:53 45° WNW 18:33:53 45° WNW
COSMO-SKYMED 1 4.3 18:33:22 10° N 18:37:12 31° WNW 18:41:01 10° SW
ISS -1.8 18:37:09 10° W 18:39:01 30° W 18:39:01 30° W
Cosmos 2344 4.2 18:38:00 10° WSW 18:44:58 44° NNW 18:48:48 26° NNE
YAOGAN 1 4.5 18:45:18 10° SSW 18:49:02 29° W 18:52:48 10° NW
CZ-4C R/B 2.5 18:47:56 10° WSW 18:52:26 52° NW 18:53:05 48° NNW
ATLAS 5 CENTAUR R/B 3.6 18:53:49 10° WSW 18:54:38 17° WSW 18:54:38 17° WSW
Meteor 1-24 Rocket 3.7 18:51:58 10° S 18:57:53 90° E 18:58:08 83° NNE
USA 215 3.7 19:03:32 44° NNE 19:04:03 45° N 19:10:12 10° WNW
Meteor 2-5 Rocket 4.0 19:02:45 10° SSW 19:07:38 64° SW 19:07:38 64° SW
SL-16 R/B 2.8 19:17:45 10° SW 19:22:50 53° WNW 19:22:50 53° WNW
Cosmos 1553 Rocket 4.2 19:18:15 10° NNW 19:23:51 63° WNW 19:23:51 63° WNW
Cosmos 2369 Rocket 3.4 19:34:21 10° NW 19:38:45 39° W 19:38:45 39° W
ACS3 Solar Sail 4.3 19:36:12 10° SW 19:40:26 18° W 19:44:43 10° NW
ATLAS 2AS CENTAUR R/B 4.0 19:38:48 10° NW 19:44:39 32° WSW 19:46:35 27° SW
